KB1FFS Weather Reports


time (UTC)temp
C
wind
direction
speed
KPH
gust
KPH
rain 1hr
cm
rain 24hr
cm
rain mn
cm
humidity
%
barometer
mb
20260906224250 38 185 4.8 6.4 0.00 0.00 0.00 35 1011.9
20260906223747 38 32 3.2 4.8 0.00 0.00 0.00 36 1012.0
20260906223242 37 188 1.6 4.8 0.00 0.00 0.00 37 1012.0
20260906222740 37 180 6.4 6.4 0.00 0.00 0.00 37 1012.1
20260906222239 38 182 3.2 6.4 0.00 0.00 0.00 36 1012.0
20260906221737 38 203 3.2 6.4 0.00 0.00 0.00 37 1012.2
20260906221232 38 185 3.2 6.4 0.00 0.00 0.00 36 1012.3
20260906220727 38 177 3.2 6.4 0.00 0.00 0.00 36 1012.2
20260906220222 38 203 3.2 8.0 0.00 0.00 0.00 37 1012.3
20260906215721 38 192 4.8 6.4 0.00 0.00 0.00 37 1012.2
20260906215221 38 121 1.6 4.8 0.00 0.00 0.00 37 1012.0
20260906214719 38 194 3.2 4.8 0.00 0.00 0.00 36 1012.1
20260906214215 38 201 3.2 4.8 0.00 0.00 0.00 38 1012.2
20260906213714 38 185 0.0 4.8 0.00 0.00 0.00 38 1012.4
20260906213208 38 162 0.0 6.4 0.00 0.00 0.00 37 1012.5
20260906212705 38 220 0.0 6.4 0.00 0.00 0.00 38 1012.7
20260906212201 37 192 3.2 6.4 0.00 0.00 0.00 38 1012.7
20260906211701 38 183 3.2 6.4 0.00 0.00 0.00 36 1012.8
20260906211156 38 165 6.4 6.4 0.00 0.00 0.00 36 1012.9
20260906210651 38 186 3.2 6.4 0.00 0.00 0.00 38 1012.9
20260906210151 37 63 0.0 4.8 0.00 0.00 0.00 38 1012.8
20260906205647 37 190 3.2 8.0 0.00 0.00 0.00 39 1013.3
20260906205143 37 174 3.2 6.4 0.00 0.00 0.00 37 1013.2
20260906204643 37 226 1.6 4.8 0.00 0.00 0.00 39 1013.1
20260906204138 37 201 4.8 6.4 0.00 0.00 0.00 39 1013.2
20260906203637 37 182 4.8 9.7 0.00 0.00 0.00 38 1013.2
20260906203132 37 186 4.8 8.0 0.00 0.00 0.00 38 1013.3
20260906202629 38 187 4.8 8.0 0.00 0.00 0.00 37 1013.4
20260906202128 38 192 3.2 6.4 0.00 0.00 0.00 38 1013.2
20260906201623 38 162 3.2 6.4 0.00 0.00 0.00 37 1013.4
20260906201122 38 185 4.8 8.0 0.00 0.00 0.00 37 1013.6
20260906200619 39 170 4.8 11.3 0.00 0.00 0.00 36 1013.6
20260906200114 38 0 0.0 3.2 0.00 0.00 0.00 36 1013.6
20260906195609 38 214 3.2 6.4 0.00 0.00 0.00 38 1013.7
20260906195106 38 167 3.2 8.0 0.00 0.00 0.00 38 1013.5
20260906194601 39 211 3.2 8.0 0.00 0.00 0.00 37 1013.8
20260906194057 38 203 0.0 1.6 0.00 0.00 0.00 38 1013.8
20260906193556 38 341 3.2 6.4 0.00 0.00 0.00 38 1013.7
20260906193052 37 187 4.8 11.3 0.00 0.00 0.00 38 1013.8
20260906192548 38 15 0.0 3.2 0.00 0.00 0.00 38 1014.1
20260906192046 38 211 3.2 4.8 0.00 0.00 0.00 38 1013.9
20260906191542 38 164 4.8 4.8 0.00 0.00 0.00 38 1013.9
20260906191041 38 285 0.0 6.4 0.00 0.00 0.00 39 1014.0
20260906190540 38 339 3.2 8.0 0.00 0.00 0.00 39 1014.3
20260906190036 38 334 3.2 4.8 0.00 0.00 0.00 39 1014.1
20260906185534 38 186 6.4 11.3 0.00 0.00 0.00 39 1014.3
20260906185033 38 209 0.0 3.2 0.00 0.00 0.00 40 1014.0
20260906184529 38 347 4.8 6.4 0.00 0.00 0.00 39 1014.3
20260906184024 38 183 3.2 4.8 0.00 0.00 0.00 40 1014.4
20260906183520 37 189 3.2 4.8 0.00 0.00 0.00 40 1014.4
20260906183015 37 164 3.2 8.0 0.00 0.00 0.00 40 1014.5
20260906182510 37 171 3.2 4.8 0.00 0.00 0.00 41 1014.4
20260906182007 37 190 6.4 8.0 0.00 0.00 0.00 41 1014.7
20260906181502 37 188 3.2 6.4 0.00 0.00 0.00 41 1014.6
20260906180957 37 175 6.4 8.0 0.00 0.00 0.00 42 1014.9
20260906180452 37 343 3.2 6.4 0.00 0.00 0.00 45 1014.9
20260906175950 37 168 6.4 9.7 0.00 0.00 0.00 41 1014.9
20260906175445 37 162 3.2 8.0 0.00 0.00 0.00 40 1015.0
20260906174944 37 173 4.8 8.0 0.00 0.00 0.00 41 1015.1
20260906174443 37 176 3.2 4.8 0.00 0.00 0.00 44 1015.3
20260906173938 36 200 3.2 4.8 0.00 0.00 0.00 43 1015.2
20260906173433 36 158 6.4 8.0 0.00 0.00 0.00 41 1015.4
20260906172933 37 216 1.6 6.4 0.00 0.00 0.00 44 1015.6
20260906172430 37 170 3.2 6.4 0.00 0.00 0.00 42 1015.5
20260906171924 36 312 0.0 6.4 0.00 0.00 0.00 45 1015.4
20260906171419 36 165 3.2 6.4 0.00 0.00 0.00 44 1015.3
20260906170915 36 190 4.8 4.8 0.00 0.00 0.00 45 1015.6
20260906170411 36 175 3.2 8.0 0.00 0.00 0.00 45 1015.7
20260906165907 37 186 6.4 8.0 0.00 0.00 0.00 44 1015.6
20260906165406 36 323 3.2 3.2 0.00 0.00 0.00 45 1015.9
20260906164901 36 287 1.6 4.8 0.00 0.00 0.00 45 1015.9
20260906164400 36 191 6.4 6.4 0.00 0.00 0.00 45 1015.7
20260906163856 36 39 6.4 6.4 0.00 0.00 0.00 46 1015.8
20260906163353 35 177 3.2 4.8 0.00 0.00 0.00 48 1015.9
20260906162850 35 159 4.8 6.4 0.00 0.00 0.00 47 1016.0
20260906162349 35 188 3.2 8.0 0.00 0.00 0.00 47 1015.7
20260906161844 35 178 1.6 4.8 0.00 0.00 0.00 49 1016.1
20260906161344 35 333 0.0 4.8 0.00 0.00 0.00 48 1016.1
20260906160843 35 175 1.6 3.2 0.00 0.00 0.00 48 1016.1
20260906160337 35 324 0.0 4.8 0.00 0.00 0.00 48 1015.8
20260906155835 35 179 1.6 4.8 0.00 0.00 0.00 50 1015.9
20260906155329 35 196 0.0 4.8 0.00 0.00 0.00 50 1016.0
20260906154825 35 155 1.6 4.8 0.00 0.00 0.00 52 1015.8
20260906154320 35 167 0.0 3.2 0.00 0.00 0.00 54 1016.0
20260906153819 34 163 4.8 6.4 0.00 0.00 0.00 52 1015.7
20260906153318 34 156 4.8 6.4 0.00 0.00 0.00 53 1015.8
20260906152813 33 134 3.2 4.8 0.00 0.00 0.00 55 1015.7
20260906152308 33 12 0.0 6.4 0.00 0.00 0.00 56 1015.7
20260906151808 33 149 1.6 3.2 0.00 0.00 0.00 56 1015.7
20260906151303 33 13 1.6 3.2 0.00 0.00 0.00 56 1015.5
20260906150759 32 169 1.6 3.2 0.00 0.00 0.00 57 1015.5
20260906150254 32 89 0.0 1.6 0.00 0.00 0.00 59 1015.6
20260906145753 32 185 1.6 3.2 0.00 0.00 0.00 59 1015.3
20260906145251 32 160 3.2 4.8 0.00 0.00 0.00 61 1015.4
20260906144747 31 186 0.0 3.2 0.00 0.00 0.00 62 1015.3
20260906144242 31 151 3.2 4.8 0.00 0.00 0.00 63 1015.3
20260906143741 31 33 1.6 1.6 0.00 0.00 0.00 63 1015.6
20260906143239 30 149 3.2 4.8 0.00 0.00 0.00 65 1015.3
20260906142738 30 141 0.0 6.4 0.00 0.00 0.00 67 1015.5
20260906142233 29 178 3.2 4.8 0.00 0.00 0.00 69 1015.5
20260906141732 29 173 1.6 6.4 0.00 0.00 0.00 69 1015.2
20260906141227 28 175 3.2 4.8 0.00 0.00 0.00 70 1015.5
20260906140727 28 85 0.0 3.2 0.00 0.00 0.00 71 1015.4
20260906140221 28 99 0.0 3.2 0.00 0.00 0.00 71 1015.5
20260906135718 28 168 0.0 4.8 0.00 0.00 0.00 72 1015.5
20260906135214 28 158 3.2 4.8 0.00 0.00 0.00 72 1015.7
20260906134709 28 147 1.6 3.2 0.00 0.00 0.00 73 1015.6
20260906134205 28 174 1.6 3.2 0.00 0.00 0.00 73 1015.5
20260906133700 27 169 0.0 4.8 0.00 0.00 0.00 74 1015.8
20260906133155 27 158 0.0 4.8 0.00 0.00 0.00 74 1015.7
20260906132651 27 180 3.2 4.8 0.00 0.00 0.00 76 1015.5
20260906132146 27 86 0.0 3.2 0.00 0.00 0.00 76 1015.5
20260906131642 27 162 0.0 3.2 0.00 0.00 0.00 78 1015.5
20260906131137 26 109 0.0 3.2 0.00 0.00 0.00 78 1015.6
20260906130632 26 150 1.6 3.2 0.00 0.00 0.00 80 1015.5
20260906130127 26 116 0.0 3.2 0.00 0.00 0.00 81 1015.4
20260906125625 25 136 1.6 3.2 0.00 0.00 0.00 82 1015.4
20260906125123 25 130 3.2 3.2 0.00 0.00 0.00 83 1015.3
20260906124619 25 113 3.2 3.2 0.00 0.00 0.00 83 1015.2
20260906124114 25 140 1.6 3.2 0.00 0.00 0.00 84 1015.2
20260906123614 25 148 0.0 3.2 0.00 0.00 0.00 84 1015.2
20260906123109 25 131 1.6 3.2 0.00 0.00 0.00 85 1015.3
20260906122608 25 111 1.6 3.2 0.00 0.00 0.00 85 1015.1
20260906122104 25 89 0.0 1.6 0.00 0.00 0.00 85 1015.1
20260906121600 25 93 1.6 3.2 0.00 0.00 0.00 85 1014.9
20260906121056 25 77 3.2 3.2 0.00 0.00 0.00 85 1014.8
20260906120551 25 66 1.6 3.2 0.00 0.00 0.00 85 1014.9
20260906120049 25 163 1.6 3.2 0.00 0.00 0.00 85 1014.9
20260906115548 25 113 0.0 1.6 0.00 0.00 0.00 84 1014.7
20260906115044 25 164 0.0 3.2 0.00 0.00 0.00 83 1014.8
20260906114543 25 39 0.0 3.2 0.00 0.00 0.00 83 1014.7
20260906114039 25 146 0.0 3.2 0.00 0.00 0.00 82 1014.8
20260906113538 25 96 0.0 3.2 0.00 0.00 0.00 83 1014.8
20260906113033 25 120 1.6 3.2 0.00 0.00 0.00 83 1014.6
20260906112528 25 109 0.0 3.2 0.00 0.00 0.00 83 1014.4
20260906112025 25 124 0.0 1.6 0.00 0.00 0.00 81 1014.6
20260906111524 25 89 0.0 1.6 0.00 0.00 0.00 80 1014.6
20260906111020 25 117 0.0 0.0 0.00 0.00 0.00 81 1014.4
20260906110514 25 143 1.6 3.2 0.00 0.00 0.00 81 1014.6
20260906110014 25 129 0.0 1.6 0.00 0.00 0.00 80 1014.6
20260906105509 26 121 0.0 1.6 0.00 0.00 0.00 80 1014.3
20260906105005 26 84 0.0 1.6 0.00 0.00 0.00 80 1014.4
20260906104503 26 118 0.0 1.6 0.00 0.00 0.00 80 1014.3
20260906104003 26 130 0.0 1.6 0.00 0.00 0.00 79 1014.3
20260906103501 26 75 0.0 1.6 0.00 0.00 0.00 79 1014.1
20260906102956 26 127 0.0 1.6 0.00 0.00 0.00 80 1014.4
20260906102451 26 93 1.6 3.2 0.00 0.00 0.00 80 1014.1
20260906101951 26 135 0.0 1.6 0.00 0.00 0.00 77 1014.1
20260906101446 26 129 0.0 1.6 0.00 0.00 0.00 77 1014.3
20260906100946 26 117 0.0 1.6 0.00 0.00 0.00 77 1014.2
20260906100441 26 119 1.6 1.6 0.00 0.00 0.00 76 1014.2
20260906095936 26 104 0.0 0.0 0.00 0.00 0.00 76 1014.2
20260906095431 26 102 1.6 1.6 0.00 0.00 0.00 76 1013.9
20260906094926 26 104 0.0 0.0 0.00 0.00 0.00 75 1014.0
20260906094420 27 103 0.0 1.6 0.00 0.00 0.00 74 1013.9
20260906093911 27 114 0.0 1.6 0.00 0.00 0.00 73 1014.0
20260906093407 27 104 0.0 1.6 0.00 0.00 0.00 73 1013.8
20260906092907 27 119 0.0 1.6 0.00 0.00 0.00 73 1013.7
20260906092406 27 104 0.0 1.6 0.00 0.00 0.00 73 1013.6
20260906091902 27 104 0.0 0.0 0.00 0.00 0.00 73 1013.7
20260906091358 27 117 0.0 1.6 0.00 0.00 0.00 72 1013.6
20260906090854 27 99 0.0 3.2 0.00 0.00 0.00 72 1013.8
20260906090353 27 62 0.0 1.6 0.00 0.00 0.00 72 1013.6
20260906085848 27 124 0.0 3.2 0.00 0.00 0.00 71 1013.7
20260906085347 27 143 1.6 3.2 0.00 0.00 0.00 71 1013.5
20260906084842 28 129 0.0 1.6 0.00 0.00 0.00 71 1013.6
20260906084342 28 156 0.0 3.2 0.00 0.00 0.00 71 1013.6
20260906083836 28 99 1.6 4.8 0.00 0.00 0.00 71 1013.7
20260906083333 28 142 0.0 3.2 0.00 0.00 0.00 71 1013.6
20260906082832 28 151 1.6 3.2 0.00 0.00 0.00 70 1013.7
20260906082327 28 139 1.6 3.2 0.00 0.00 0.00 70 1013.5
20260906081823 28 124 0.0 3.2 0.00 0.00 0.00 70 1013.4
20260906081319 28 155 1.6 3.2 0.00 0.00 0.00 70 1013.4
20260906080815 28 122 3.2 3.2 0.00 0.00 0.00 70 1013.3
20260906080311 28 140 0.0 3.2 0.00 0.00 0.00 69 1013.3
20260906075810 28 58 0.0 3.2 0.00 0.00 0.00 69 1013.4
20260906075310 28 147 0.0 1.6 0.00 0.00 0.00 69 1013.5
20260906074805 28 145 0.0 3.2 0.00 0.00 0.00 68 1013.7
20260906074305 28 89 0.0 3.2 0.00 0.00 0.00 68 1013.8
20260906073804 28 132 1.6 3.2 0.00 0.00 0.00 68 1013.7
20260906073259 28 141 0.0 4.8 0.00 0.00 0.00 68 1013.8
20260906072755 28 130 1.6 3.2 0.00 0.00 0.00 68 1013.9
20260906072250 28 78 1.6 4.8 0.00 0.00 0.00 68 1014.0
20260906071746 28 149 1.6 4.8 0.00 0.00 0.00 68 1013.9
20260906071246 28 126 0.0 1.6 0.00 0.00 0.00 69 1013.9
20260906070743 28 141 1.6 3.2 0.00 0.00 0.00 69 1014.0
20260906070238 28 140 1.6 1.6 0.00 0.00 0.00 68 1013.8
20260906065738 28 142 0.0 1.6 0.00 0.00 0.00 69 1014.0
20260906065233 28 135 0.0 3.2 0.00 0.00 0.00 69 1013.9
20260906064728 28 117 0.0 1.6 0.00 0.00 0.00 68 1013.8
20260906064224 28 110 0.0 3.2 0.00 0.00 0.00 68 1013.9
20260906063719 28 114 0.0 3.2 0.00 0.00 0.00 68 1014.2
20260906063215 28 131 0.0 3.2 0.00 0.00 0.00 68 1013.8
20260906062711 29 142 0.0 3.2 0.00 0.00 0.00 68 1014.0
20260906062210 29 116 0.0 1.6 0.00 0.00 0.00 67 1013.8
20260906061705 29 104 0.0 3.2 0.00 0.00 0.00 67 1013.9
20260906061200 28 135 0.0 1.6 0.00 0.00 0.00 68 1013.9
20260906060657 28 117 0.0 1.6 0.00 0.00 0.00 68 1014.1
20260906060153 28 50 0.0 1.6 0.00 0.00 0.00 68 1014.0
20260906055649 29 117 0.0 1.6 0.00 0.00 0.00 69 1014.0
20260906055144 29 127 0.0 3.2 0.00 0.00 0.00 66 1014.1
20260906054639 29 129 0.0 1.6 0.00 0.00 0.00 66 1013.9
20260906054134 29 117 0.0 1.6 0.00 0.00 0.00 67 1014.1
20260906053631 30 143 0.0 1.6 0.00 0.00 0.00 65 1014.0
20260906053125 30 114 0.0 3.2 0.00 0.00 0.00 64 1014.0
20260906052621 30 154 0.0 1.6 0.00 0.00 0.00 64 1014.2
20260906052118 30 124 1.6 1.6 0.00 0.00 0.00 63 1014.2
20260906051614 30 118 0.0 3.2 0.00 0.00 0.00 63 1014.3
20260906051108 30 84 1.6 3.2 0.00 0.00 0.00 62 1014.1
20260906050604 30 127 0.0 1.6 0.00 0.00 0.00 62 1014.2
20260906050059 30 135 0.0 3.2 0.00 0.00 0.00 62 1014.1
20260906045557 30 154 0.0 3.2 0.00 0.00 0.00 62 1014.1
20260906045053 30 109 1.6 3.2 0.00 0.00 0.00 62 1014.0
20260906044548 30 132 1.6 1.6 0.00 0.00 0.00 62 1014.0
20260906044044 30 139 0.0 3.2 0.00 0.00 0.00 62 1013.9
20260906043539 30 89 0.0 1.6 0.00 0.00 0.00 60 1014.0
20260906043036 30 89 0.0 0.0 0.00 0.00 0.00 60 1013.9
20260906042534 31 160 0.0 3.2 0.00 0.00 0.00 60 1013.9
20260906042029 31 146 0.0 1.6 0.00 0.00 0.00 59 1013.9
20260906041525 31 108 0.0 3.2 0.00 0.00 0.00 59 1013.9
20260906041025 31 242 0.0 4.8 0.00 0.00 0.00 59 1013.8
20260906040520 31 113 0.0 3.2 0.00 0.00 0.00 58 1013.8
20260906040016 31 199 1.6 4.8 0.00 0.00 0.00 58 1013.6
20260906035511 31 137 0.0 3.2 0.00 0.00 0.00 58 1013.8
20260906035007 31 155 4.8 4.8 0.00 0.00 0.00 57 1013.8
20260906034506 31 142 0.0 3.2 0.00 0.00 0.00 57 1013.9
20260906034001 31 166 0.0 6.4 0.00 0.00 0.00 57 1014.0
20260906033456 31 152 4.8 4.8 0.00 0.00 0.00 56 1013.8
20260906032952 31 197 0.0 3.2 0.00 0.00 0.00 56 1013.9
20260906032449 31 156 0.0 3.2 0.00 0.00 0.00 56 1013.9
20260906031948 31 172 0.0 6.4 0.00 0.00 0.00 55 1013.8
20260906031444 31 343 0.0 4.8 0.00 0.00 0.00 55 1013.7
20260906030939 32 129 0.0 3.2 0.00 0.00 0.00 55 1013.9
20260906030433 32 158 4.8 6.4 0.00 0.00 0.00 54 1013.9
20260906025928 32 13 0.0 6.4 0.00 0.00 0.00 54 1014.0
20260906025428 32 163 6.4 8.0 0.00 0.00 0.00 53 1014.0
20260906024927 32 164 4.8 9.7 0.00 0.00 0.00 53 1013.9
20260906024426 32 194 0.0 3.2 0.00 0.00 0.00 54 1013.5
20260906023922 32 352 0.0 3.2 0.00 0.00 0.00 54 1013.5
20260906023419 32 159 3.2 6.4 0.00 0.00 0.00 53 1013.3
20260906022918 32 167 1.6 6.4 0.00 0.00 0.00 53 1013.4
20260906022413 32 175 3.2 3.2 0.00 0.00 0.00 52 1013.3
20260906021908 32 221 1.6 4.8 0.00 0.00 0.00 52 1013.2
20260906021409 32 169 3.2 4.8 0.00 0.00 0.00 51 1013.2
20260906020903 33 150 3.2 9.7 0.00 0.00 0.00 50 1013.2
20260906020403 33 165 3.2 6.4 0.00 0.00 0.00 50 1012.9
20260906015857 33 185 4.8 4.8 0.00 0.00 0.00 49 1013.0
20260906015357 33 177 3.2 4.8 0.00 0.00 0.00 49 1012.9
20260906014857 33 168 1.6 11.3 0.00 0.00 0.00 47 1012.6
20260906014356 34 164 1.6 8.0 0.00 0.00 0.00 45 1012.6
20260906013853 34 170 6.4 11.3 0.00 0.00 0.00 44 1012.7
20260906013348 34 187 3.2 3.2 0.00 0.00 0.00 42 1012.3
20260906012843 34 185 0.0 1.6 0.00 0.00 0.00 43 1012.4
20260906012338 35 167 1.6 3.2 0.00 0.00 0.00 42 1012.3
20260906011838 35 184 0.0 3.2 0.00 0.00 0.00 41 1012.1
20260906011333 35 189 3.2 3.2 0.00 0.00 0.00 41 1011.8
20260906010829 35 176 1.6 3.2 0.00 0.00 0.00 40 1011.9
20260906010325 35 164 3.2 3.2 0.00 0.00 0.00 40 1012.1
20260906005820 35 164 1.6 3.2 0.00 0.00 0.00 40 1012.0
20260906005319 35 180 3.2 3.2 0.00 0.00 0.00 39 1012.1
20260906004818 35 151 0.0 3.2 0.00 0.00 0.00 40 1012.1
20260906004318 35 153 0.0 3.2 0.00 0.00 0.00 40 1011.9
20260906003813 35 180 3.2 3.2 0.00 0.00 0.00 39 1011.9
20260906003308 35 188 0.0 3.2 0.00 0.00 0.00 39 1012.1
20260906002804 36 198 3.2 3.2 0.00 0.00 0.00 38 1012.0
20260906002306 36 190 1.6 4.8 0.00 0.00 0.00 37 1012.0
20260906001759 36 190 4.8 4.8 0.00 0.00 0.00 37 1012.0
20260906001254 36 157 1.6 6.4 0.00 0.00 0.00 37 1011.9
20260906000750 36 187 3.2 4.8 0.00 0.00 0.00 37 1011.9
20260906000249 36 188 3.2 4.8 0.00 0.00 0.00 36 1011.8
20260905235745 37 181 0.0 4.8 0.00 0.00 0.00 37 1011.8
20260905235244 37 180 4.8 4.8 0.00 0.00 0.00 36 1011.9
20260905234740 37 198 1.6 4.8 0.00 0.00 0.00 35 1011.6
20260905234235 38 197 1.6 4.8 0.00 0.00 0.00 35 1011.7
20260905233730 38 163 3.2 3.2 0.00 0.00 0.00 35 1011.8
20260905233229 37 201 0.0 3.2 0.00 0.00 0.00 35 1011.8
20260905232724 37 177 1.6 6.4 0.00 0.00 0.00 35 1011.9
20260905232220 38 211 4.8 6.4 0.00 0.00 0.00 35 1011.7
20260905231716 38 181 3.2 4.8 0.00 0.00 0.00 35 1011.8
20260905231211 38 201 0.0 6.4 0.00 0.00 0.00 36 1011.9
20260905230708 38 192 6.4 6.4 0.00 0.00 0.00 36 1011.7
20260905230205 38 189 6.4 6.4 0.00 0.00 0.00 35 1011.7
20260905225704 38 197 3.2 6.4 0.00 0.00 0.00 35 1011.5
20260905225200 38 195 4.8 8.0 0.00 0.00 0.00 34 1011.6
20260905224659 38 169 1.6 4.8 0.00 0.00 0.00 34 1011.8